Location: ?????????
(54.7630°N, 39.4991°E)
Time: 02:14:45
(UTC+00:00)

Cosmos 2098 Rocket - Pass Details

Date: 14 April 2026
Orbit: 346 x 841 km, 82.9° (Epoch: 20 May)

Event Time Altitude Azimuth Distance (km) Brightness Sun altitude
Exits shadow 23:54:02 29° 244° (WSW) 1,485 4.5 -18.1°
Maximum altitude 23:56:16 41° 291° (WNW) 1,199 4.3 -17.9°
Drops below altitude 10° 00:01:39 10° 2° (N) 2,485 6.9 -17.4°
Sets 00:04:15 0° 9° (N) 3,410 7.8 -17.1°
